Location: Andrest
(43.3200°N, 0.0641°E)
Time: 14:34:27
(UTC+00:00)

Cosmos 2369 Rocket - Pass Details

Date: 01 December 2020
Orbit: 829 x 852 km, 71.0° (Epoch: 22 January)

Event Time Altitude Azimuth Distance (km) Brightness Sun altitude
Rises 17:50:34 0° 336° (NNW) 3,421 5.5 -15.1°
Reaches altitude 10° 17:53:03 10° 337° (NNW) 2,479 4.7 -15.6°
Maximum altitude 17:58:45 79° 65° (ENE) 863 2.1 -16.6°
Drops below altitude 10° 18:04:23 10° 152° (SSE) 2,448 4.5 -17.6°
Sets 18:06:48 0° 154° (SSE) 3,375 5.2 -18.0°
